#timestamp,LO_Frequency,Hit,StdDev 
1592949615.7,286047000.8,N
1592949635.5,286047003.3,N
1592949655.4,286047001.3,N
1592949675.2,286047001.3,N
1592949695.0,286047006.0,Y
1592949695.9,286047006.0,P
1592949715.8,286047004.4,N
1592949735.6,286047001.5,N
1592949755.5,286047003.4,N
1592949775.3,286047005.9,Y
1592949795.1,286047002.9,P
1592949815.9,286047003.0,P
1592949835.7,286047002.5,P
1592949855.5,286046998.7,Y
1592949875.4,286046991.9,P
1592949895.2,286046994.4,N
1592949915.1,286046993.0,N
1592949916.0,286046993.0,N
1592949935.8,286046992.0,N
1592949955.6,286046995.8,N
1592949975.5,286047000.9,N
1592949995.3,286047004.1,N
1592950015.1,286047007.6,N
1592950035.9,286047004.3,N
1592950055.7,286046996.7,N
1592950075.6,286046994.9,N
1592950095.4,286046995.0,N
1592950115.2,286046996.1,N
1592950135.1,286047000.4,N
1592950136.0,286047000.4,N
1592950155.8,286047005.1,N
1592950175.6,286047004.7,N
1592950195.5,286047007.4,N
1592950215.3,286047003.6,N
1592950235.1,286047004.4,N
1592950255.9,286047004.0,N
1592950275.7,286047001.9,N
1592950295.6,286047007.2,N
1592950315.4,286047008.6,N
1592950335.2,286047011.9,N
1592950355.1,286047014.6,N
1592950356.0,286047014.6,N
1592950375.8,286047018.8,N
1592950395.7,286047022.7,Y
1592950415.5,286047022.3,P
1592950435.3,286047024.6,N
1592950455.2,286047024.1,N
1592950475.9,286047026.1,N
1592950495.7,286047025.3,N
1592950515.6,286047027.6,Y
1592950535.4,286047004.6,P
1592950555.3,286047006.8,N
1592950575.1,286047008.8,N
1592950576.0,286047008.8,N
1592950595.8,286047010.3,N
1592950615.7,286047009.6,N
1592950635.5,286047010.9,N
1592950655.3,286047017.5,Y
1592950675.2,286047012.3,P
1592950695.0,286047011.7,P
1592950695.9,286047011.7,P
1592950715.8,286047011.3,Y
1592950735.6,286046999.9,P
1592950755.4,286047004.1,N
1592950775.3,286047005.4,N
1592950795.1,286047003.5,N
1592950815.8,286047003.1,N
1592950835.7,286047007.4,N
1592950855.5,286047007.4,N
1592950875.4,286047006.4,N
1592950895.2,286047010.2,Y
1592950915.0,286047004.3,P
1592950915.9,286047004.3,P
1592950935.8,286047001.8,P
1592950955.6,286047004.0,Y
1592950975.5,286046998.9,P
1592950995.3,286046994.9,N
1592951015.1,286046993.3,N
1592951035.9,286046991.9,N
1592951055.7,286046994.3,N
1592951075.5,286046991.2,N
1592951095.4,286046991.0,N
1592951115.2,286046990.3,N
1592951135.1,286046992.9,N
1592951136.0,286046992.9,N
1592951155.8,286046994.7,N
1592951175.6,286046993.6,N
1592951195.5,286046996.9,N
1592951215.3,286047000.7,N
1592951235.1,286047000.2,N
1592951255.9,286047004.2,N
1592951275.7,286047005.7,N
1592951295.6,286047006.6,N
1592951315.4,286047008.5,N
1592951335.2,286047009.8,N
1592951355.1,286047011.7,N
1592951356.0,286047011.7,N
1592951375.8,286047012.4,N
1592951395.7,286047009.7,N
1592951415.5,286047008.6,N
1592951435.3,286047008.8,N
1592951455.2,286047004.5,N
1592951475.9,286047003.1,N
1592951495.7,286047002.0,N
1592951515.6,286047002.5,N
1592951535.4,286047005.6,N
1592951555.2,286047003.9,N
1592951575.1,286047004.8,N
1592951576.0,286047004.8,N
1592951595.8,286047006.2,N
1592951615.7,286047008.2,N
1592951635.5,286047008.3,N
1592951655.3,286047007.7,N
1592951675.2,286047011.8,N
1592951695.0,286047012.2,N
1592951695.9,286047012.2,N
1592951715.8,286047013.8,Y
1592951735.6,286047008.7,P
1592951755.4,286047013.8,P
1592951775.3,286047010.9,P
1592951795.1,286047009.8,Y
1592951815.8,286046998.1,P
1592951835.7,286047000.4,N
1592951855.5,286046997.2,N
1592951875.3,286046997.6,N
1592951895.2,286046995.1,N
1592951915.0,286046993.9,N
1592951915.9,286046993.9,N
1592951935.8,286046993.0,N
1592951955.6,286046991.3,N
1592951975.4,286046987.4,N
1592951995.3,286046987.9,N
1592952015.1,286046984.6,N
1592952035.8,286046978.1,Y
1592952055.7,286046984.8,P
1592952075.5,286046980.6,P
1592952095.4,286046980.8,P
1592952115.2,286046981.0,Y
1592952135.0,286046995.7,P
1592952135.9,286046995.7,N
1592952155.8,286046997.9,N
1592952175.6,286047001.3,N
1592952195.4,286047005.6,N
1592952215.3,286047003.1,N
1592952235.1,286047003.3,N
1592952255.9,286047008.3,N
1592952275.7,286047010.5,N
1592952295.5,286047013.6,N
1592952315.4,286047017.2,N
1592952335.2,286047016.3,N
1592952355.0,286047016.3,N
1592952355.9,286047016.3,N
1592952375.8,286047014.1,N
1592952395.6,286047013.5,N
1592952415.5,286047014.5,N
1592952435.3,286047021.6,N
1592952455.1,286047026.3,N
1592952475.9,286047024.7,N
1592952495.7,286047025.1,N
1592952515.5,286047026.5,N
1592952535.4,286047030.3,N
1592952555.2,286047033.4,N
1592952575.1,286047034.1,N
1592952576.0,286047034.1,N
1592952595.8,286047037.0,N
1592952615.6,286047038.6,N
1592952635.5,286047039.7,N
1592952655.3,286047043.2,Y
1592952675.1,286047024.2,P
1592952695.9,286047025.1,P
1592952715.7,286047022.8,P
1592952735.6,286047022.8,Y
1592952755.4,286047005.8,P
1592952775.2,286047005.2,N
1592952795.1,286047004.9,N
1592952796.0,286047004.9,N
1592952815.8,286047004.5,N
1592952835.6,286047006.8,N
1592952855.5,286047008.4,N
1592952875.3,286047012.2,N
1592952895.2,286047014.0,N
1592952915.9,286047015.4,N
1592952935.7,286047017.5,Y
1592952955.6,286047014.0,P
1592952975.4,286047020.4,P
1592952995.3,286047020.5,P
1592953015.1,286047024.4,Y
1592953016.0,286047024.4,P
1592953035.8,286047011.5,N
1592953055.7,286047014.4,N
1592953075.5,286047019.1,Y
1592953095.3,286047007.8,P
1592953115.2,286047014.0,P
1592953135.0,286047011.0,N
1592953135.9,286047011.0,Y
1592953155.8,286047005.4,P
1592953175.6,286047006.2,N
1592953195.4,286047008.0,N
